Tracking 25193 objects as of 18-Jan-2022
HD Live streaming from Space Station
objects crossing your sky now

PALAPA 2

Track PALAPA 2 now!
PALAPA 2 is classified as:


NORAD ID: 9862
Int'l Code: 1977-018A
Perigee: 35,839.9 km
Apogee: 35,884.4 km
Inclination: 11.8 °
Period: 1,439.6 minutes
Semi major axis: 42233 km
RCS: 5.6864 m2 (large)
Launch date: March 10, 1977
Source: Indonesia (INDO)
Launch site: AIR FORCE EASTERN TEST RANGE (AFETR)
aabbcc
Your satellite tracking list
Your tracking list is empty




NASA's NSSDC Master Catalog

Two Line Element Set (TLE):
1 09862U 77018A   22017.46762891 -.00000081  00000-0  00000-0 0  9993
2 09862  11.7845 323.2084 0005265  80.3828 141.4107  1.00028276126982
Source of the keplerian elements: AFSPC